Location: Voyageurs National Park
(48.5020°N, 92.9292°W)
Time: 13:10:56
(UTC-06:00)

Amateur Radio Satellites - All Passes

Search period start: 26 February 2017 12:40
Search period end: 27 February 2017 12:40
Location: Voyageurs National Park, 48.5020°N, 92.9292°W

Satellite Date Start Highest point End Downlink Frequencies (MHz)
Time Altitude Azimuth
AO-7 26 Feb 12:50:01 12:56:46 29° 48° (NE) 13:03:30 .
YUBILEINY 26 Feb 12:51:27 12:58:02 23° 304° (NW) 13:04:38 435.215
Gurwin Techsat 1B 26 Feb 12:51:39 12:56:54 65° 71° (ENE) 13:02:12 435.225
Tancredo 1 26 Feb 12:53:27 12:56:42 78° 204° (SSW) 12:59:54 437.200
BEESAT 3 26 Feb 12:56:30 12:59:36 21° 34° (NE) 13:02:42 437.485
BUGSAT 1 26 Feb 12:58:22 13:01:13 18° 269° (W) 13:04:07 437.445
50 SAT 26 Feb 13:36:18 13:39:16 26° 292° (WNW) 13:42:12 437.505
BEESAT 2 26 Feb 13:37:20 13:40:35 22° 35° (NE) 13:43:50 435.950
Oscar 19 26 Feb 13:37:28 13:42:03 32° 265° (W) 13:46:39 437.125/150
ESTCUBE 1 26 Feb 13:38:32 13:40:29 13° 304° (NW) 13:42:24 437.505/2401.250
DX 1 26 Feb 13:44:09 13:48:22 48° 290° (WNW) 13:52:33 434.975-435.025
UKube-1 26 Feb 13:53:46 13:57:58 52° 290° (WNW) 14:02:10 .
SPROUT 26 Feb 13:56:10 13:59:29 22° 297° (WNW) 14:02:48 437.525
VELOX 1 26 Feb 13:57:28 14:00:40 20° 299° (WNW) 14:03:51 145.980
ISS 26 Feb 14:07:20 14:10:06 25° 218° (SW) 14:12:51 437.550
ITAMSAT 1 26 Feb 14:12:53 14:18:04 69° 71° (ENE) 14:23:17 435.822/435.867
ITUPSAT 1 26 Feb 14:25:29 14:29:38 28° 95° (E) 14:33:45 437.325
Tancredo 1 26 Feb 14:30:28 14:32:33 16° 222° (SW) 14:34:37 437.200
BEESAT 26 Feb 14:31:07 14:35:26 32° 96° (E) 14:39:42 436.000
Gurwin Techsat 1B 26 Feb 14:33:27 14:37:19 20° 270° (W) 14:41:13 435.225
BEESAT 3 26 Feb 14:33:37 14:37:39 72° 234° (SW) 14:41:38 437.485
AO-7 26 Feb 14:40:15 14:48:39 88° 250° (WSW) 14:57:05 .
MOZHAYETS 4 26 Feb 14:41:37 14:44:35 17° 89° (E) 14:47:33
BEESAT 2 26 Feb 15:14:42 15:18:45 65° 235° (SW) 15:22:45 435.950
CUTE-I 26 Feb 15:34:21 15:36:10 12° 50° (NE) 15:37:59 437.470
CUBESAT XI-V 26 Feb 15:45:11 15:47:11 13° 87° (E) 15:49:10 437.345
ITAMSAT 1 26 Feb 15:54:26 15:58:03 19° 270° (W) 16:01:41 435.822/435.867
HO-68 26 Feb 16:00:58 16:02:23 11° 37° (NE) 16:03:49 435.675
ITUPSAT 1 26 Feb 16:03:05 16:07:35 40° 293° (WNW) 16:12:02 437.325
LilacSat-2 26 Feb 16:03:12 16:04:51 12° 60° (ENE) 16:06:31 437.200
PCSat 26 Feb 16:08:12 16:13:30 59° 119° (ESE) 16:18:52 145.827
BEESAT 26 Feb 16:08:52 16:13:13 35° 294° (WNW) 16:17:32 436.000
MOZHAYETS 4 26 Feb 16:17:37 16:22:12 63° 288° (WNW) 16:26:44
RS-15 26 Feb 16:27:27 16:38:09 41° 108° (ESE) 16:49:08 29.354- 29.394
AO-7 26 Feb 16:36:28 16:42:33 22° 271° (W) 16:48:41 .
KKS-1 26 Feb 16:38:35 16:43:02 59° 101° (ESE) 16:47:27 437.445
KAITUO 1B 26 Feb 16:50:37 16:53:54 28° 68° (ENE) 16:57:14 145.475/437.950
DOVE 4 26 Feb 16:56:43 17:00:40 45° 70° (ENE) 17:04:43 437.250
XW-2F 26 Feb 16:57:21 17:00:56 39° 70° (ENE) 17:04:33 145.980 - 146.000
NO-84 26 Feb 17:00:23 17:03:29 42° 139° (SE) 17:06:53 435.350 FM
XW-2D 26 Feb 17:02:43 17:06:25 47° 71° (ENE) 17:10:10 145.860 - 145.880
XW-2B 26 Feb 17:07:45 17:11:30 51° 72° (ENE) 17:15:17 145.730 - 145.750
STARS 26 Feb 17:08:47 17:13:10 56° 101° (E) 17:17:32 437.465
M-CUBED/EXP-1 PRIME 26 Feb 17:08:53 17:11:52 22° 101° (E) 17:15:01 437.505
CUTE-I 26 Feb 17:09:55 17:15:10 60° 70° (ENE) 17:20:28 437.470
XW-2C 26 Feb 17:16:23 17:20:12 66° 73° (ENE) 17:24:03 145.795 - 145.815
CUBESAT XI-V 26 Feb 17:20:33 17:25:11 83° 287° (WNW) 17:29:47 437.345
NUDT-PHONESAT 26 Feb 17:23:17 17:27:02 64° 74° (ENE) 17:30:49 437.300
LilacSat-2 26 Feb 17:34:42 17:38:36 75° 259° (W) 17:42:30 437.200
HO-68 26 Feb 17:41:42 17:48:12 39° 59° (ENE) 17:54:43 435.675
SEEDS 26 Feb 17:52:27 17:55:07 17° 61° (ENE) 17:57:47 437.485
PCSat 26 Feb 17:52:27 17:57:16 31° 320° (NW) 18:02:06 145.827
UWE-3 26 Feb 18:06:08 18:07:56 12° 55° (NE) 18:09:45 435.000/436.395/437.385
XW-2A 26 Feb 18:13:59 18:17:15 47° 73° (ENE) 18:20:36 145.665 - 145.685
KKS-1 26 Feb 18:16:02 18:19:11 19° 300° (WNW) 18:22:19 437.445
STRAND 1 26 Feb 18:20:50 18:23:39 15° 87° (E) 18:26:27 437.568
ZACube-1 26 Feb 18:24:19 18:25:44 11° 55° (NE) 18:27:10 437.345
KAITUO 1B 26 Feb 18:24:40 18:27:55 26° 265° (W) 18:31:11 145.475/437.950
CUTE 1.7 + AOD 2 26 Feb 18:31:41 18:35:51 54° 72° (ENE) 18:40:02 437.475
XW-2F 26 Feb 18:32:24 18:35:15 19° 268° (W) 18:38:06 145.980 - 146.000
DOVE 4 26 Feb 18:35:41 18:38:40 19° 269° (W) 18:41:42 437.250
RS-15 26 Feb 18:37:43 18:49:50 76° 313° (NW) 19:02:20 29.354- 29.394
NO-84 26 Feb 18:37:51 18:41:09 43° 340° (NNW) 18:44:48 435.350 FM
XW-2D 26 Feb 18:38:23 18:40:53 16° 269° (W) 18:43:24 145.860 - 145.880
M-CUBED/EXP-1 PRIME 26 Feb 18:42:56 18:46:25 38° 296° (WNW) 18:50:09 437.505
XW-2B 26 Feb 18:43:45 18:46:01 15° 270° (W) 18:48:18 145.730 - 145.750
STARS 26 Feb 18:45:58 18:49:08 20° 299° (WNW) 18:52:19 437.465
CUTE-I 26 Feb 18:51:30 18:55:37 22° 269° (W) 18:59:46 437.470
XW-2C 26 Feb 18:53:17 18:54:50 12° 272° (W) 18:56:24 145.795 - 145.815
CUBESAT XI-V 26 Feb 18:59:51 19:01:49 13° 304° (NW) 19:03:48 437.345
NUDT-PHONESAT 26 Feb 18:59:57 19:01:24 12° 272° (W) 19:02:52 437.300
YUBILEINY 26 Feb 19:01:06 19:06:07 16° 49° (NE) 19:11:06 435.215
CUBEBUG 2 26 Feb 19:04:56 19:09:20 57° 72° (ENE) 19:13:54 437.445
AO-73 26 Feb 19:09:10 19:12:51 25° 64° (ENE) 19:16:35 145.935
AAUSAT CUBESAT 2 26 Feb 19:11:09 19:15:09 48° 71° (ENE) 19:19:09 437.432
Oscar 11 26 Feb 19:14:14 19:17:44 24° 64° (ENE) 19:21:15 .
SEEDS 26 Feb 19:26:10 19:30:22 62° 259° (W) 19:34:34 437.485
HO-68 26 Feb 19:28:49 19:35:46 52° 260° (W) 19:42:46 435.675
UWE-3 26 Feb 19:39:04 19:43:35 79° 73° (ENE) 19:48:13 435.000/436.395/437.385
PCSat 26 Feb 19:40:07 19:42:28 13° 344° (NNW) 19:44:49 145.827
XW-2A 26 Feb 19:48:41 19:50:20 13° 270° (W) 19:51:58 145.665 - 145.685
ZACube-1 26 Feb 19:56:42 20:01:10 74° 75° (ENE) 20:05:46 437.345
STRAND 1 26 Feb 19:58:19 20:03:31 85° 285° (WNW) 20:08:40 437.568
CUTE 1.7 + AOD 2 26 Feb 20:09:10 20:12:01 17° 270° (W) 20:14:53 437.475
NO-84 26 Feb 20:16:11 20:19:29 30° 2° (N) 20:23:01 435.350 FM
DELFI C3 26 Feb 20:30:26 20:34:11 43° 71° (ENE) 20:37:57 145.870
CUBEBUG 2 26 Feb 20:43:12 20:46:20 18° 271° (W) 20:49:34 437.445
AO-73 26 Feb 20:44:36 20:48:53 42° 263° (W) 20:53:14 145.935
AAUSAT CUBESAT 2 26 Feb 20:47:59 20:50:52 18° 269° (W) 20:53:47 437.432
Oscar 11 26 Feb 20:49:33 20:53:40 41° 262° (W) 20:57:49 .
RS-15 26 Feb 20:53:18 21:04:41 41° 343° (NNW) 21:16:09 29.354- 29.394
YUBILEINY 26 Feb 20:56:29 21:05:09 61° 75° (ENE) 21:13:44 435.215
PRISM 26 Feb 21:03:50 21:07:10 24° 94° (E) 21:10:29 437.425
SO-50 26 Feb 21:06:02 21:09:03 17° 112° (ESE) 21:12:03 436.795
UWE-3 26 Feb 21:18:26 21:20:38 13° 273° (W) 21:22:52 435.000/436.395/437.385
PCSat 26 Feb 21:26:33 21:28:26 12° 11° (NNE) 21:30:20 145.827
ESTCUBE 1 26 Feb 21:27:44 21:30:51 19° 60° (ENE) 21:33:59 437.505/2401.250
ZACube-1 26 Feb 21:35:34 21:38:00 14° 273° (W) 21:40:27 437.345
STRAND 1 26 Feb 21:39:00 21:41:57 15° 305° (NW) 21:44:52 437.568
TIGRISAT 26 Feb 21:42:27 21:46:31 28° 94° (E) 21:50:30 435.000
UNISAT 6 26 Feb 21:42:36 21:46:45 30° 94° (E) 21:50:50 437.425
O/OREOS (USA 219) 26 Feb 21:46:29 21:49:52 21° 102° (ESE) 21:53:18 437.305
FO-29 26 Feb 21:46:44 21:52:51 25° 87° (E) 21:58:31 435.910
VELOX 1 26 Feb 21:48:12 21:49:28 11° 55° (NE) 21:50:44 145.980
NO-84 26 Feb 21:53:57 21:57:45 51° 23° (NNE) 22:01:50 435.350 FM
DELFI C3 26 Feb 22:06:24 22:09:11 18° 268° (W) 22:11:59 145.870
LO-87 26 Feb 22:18:31 22:22:03 85° 257° (WSW) 22:25:38 145.935 - 145.965
PRISM 26 Feb 22:38:48 22:42:33 36° 292° (WNW) 22:46:17 437.425
50 SAT 26 Feb 22:41:19 22:43:46 18° 64° (ENE) 22:46:13 437.505
POLYITAN 1 26 Feb 22:41:56 22:43:19 11° 87° (E) 22:44:41 437.675
SO-50 26 Feb 22:44:19 22:49:00 76° 311° (NW) 22:53:37 436.795
QB50P2 26 Feb 22:44:25 22:46:26 13° 88° (E) 22:48:27 145.880/145.840
YUBILEINY 26 Feb 22:53:54 23:01:29 35° 277° (W) 23:09:03 435.215
ESTCUBE 1 26 Feb 23:02:47 23:07:15 60° 259° (WSW) 23:11:44 437.505/2401.250
DX 1 26 Feb 23:07:33 23:11:14 28° 65° (ENE) 23:14:57 434.975-435.025
PCSat 26 Feb 23:09:18 23:13:51 26° 37° (NE) 23:18:22 145.827
RS-15 26 Feb 23:09:37 23:21:08 41° 17° (NNE) 23:32:27 29.354- 29.394
AIST 2D 26 Feb 23:10:11 23:13:26 32° 96° (E) 23:16:39 435.315
SPROUT 26 Feb 23:16:20 23:20:30 55° 71° (ENE) 23:24:42 437.525
UKube-1 26 Feb 23:16:25 23:19:57 26° 64° (ENE) 23:23:32 .
TIGRISAT 26 Feb 23:18:54 23:23:17 39° 292° (WNW) 23:27:38 435.000
UNISAT 6 26 Feb 23:19:10 23:23:30 37° 293° (WNW) 23:27:46 437.425
VELOX 1 26 Feb 23:20:47 23:25:10 77° 73° (ENE) 23:29:34 145.980
O/OREOS (USA 219) 26 Feb 23:24:36 23:28:57 49° 302° (WNW) 23:33:22 437.305
FO-29 26 Feb 23:30:57 23:38:42 77° 289° (WNW) 23:45:43 435.910
NO-84 26 Feb 23:31:38 23:35:27 42° 221° (SW) 23:39:32 435.350 FM
DUCHIFAT 1 26 Feb 23:44:36 23:48:39 40° 98° (E) 23:52:39 145.980
EO-79 26 Feb 23:57:17 00:01:35 64° 102° (ESE) 00:05:50 145.935-145.965
NANOSAT C BR1 27 Feb 00:13:11 00:17:30 86° 106° (ESE) 00:21:46 145.865
50 SAT 27 Feb 00:13:25 00:16:40 36° 262° (W) 00:19:56 437.505
POLYITAN 1 27 Feb 00:15:22 00:19:42 84° 285° (WNW) 00:24:00 437.675
QB50P2 27 Feb 00:18:26 00:22:45 74° 286° (WNW) 00:27:01 145.880/145.840
SO-50 27 Feb 00:26:48 00:30:12 20° 331° (NNW) 00:33:34 436.795
BUGSAT 1 27 Feb 00:34:34 00:38:42 48° 100° (E) 00:42:49 437.445
DX 1 27 Feb 00:43:24 00:47:20 34° 263° (W) 00:51:19 434.975-435.025
AIST 2D 27 Feb 00:43:48 00:46:31 21° 294° (WNW) 00:49:12 435.315
UKube-1 27 Feb 00:51:50 00:55:51 38° 262° (W) 00:59:53 .
PCSat 27 Feb 00:52:22 00:57:50 78° 238° (WSW) 01:03:15 145.827
SPROUT 27 Feb 00:53:59 00:56:47 17° 270° (W) 00:59:35 437.525
VELOX 1 27 Feb 01:00:10 01:02:10 13° 272° (W) 01:04:10 145.980
Gurwin Techsat 1B 27 Feb 01:04:51 01:08:36 19° 90° (E) 01:12:21 435.225
O/OREOS (USA 219) 27 Feb 01:09:12 01:09:32 10° 324° (NW) 01:09:52 437.305
FO-29 27 Feb 01:17:02 01:22:29 22° 310° (NW) 01:27:40 435.910
DUCHIFAT 1 27 Feb 01:20:41 01:24:07 24° 296° (WNW) 01:27:33 145.980
RS-15 27 Feb 01:23:26 01:35:55 77° 48° (NE) 01:47:54 29.354- 29.394
EO-79 27 Feb 01:34:09 01:36:53 17° 300° (WNW) 01:39:36 145.935-145.965
ITUPSAT 1 27 Feb 01:35:30 01:40:09 50° 69° (ENE) 01:44:49 437.325
BEESAT 27 Feb 01:40:49 01:45:30 57° 71° (ENE) 01:50:14 436.000
Oscar 19 27 Feb 01:44:13 01:49:21 67° 102° (ESE) 01:54:28 437.125/150
MOZHAYETS 4 27 Feb 01:46:43 01:50:31 26° 64° (ENE) 01:54:20
NANOSAT C BR1 27 Feb 01:50:37 01:52:35 13° 302° (WNW) 01:54:33 145.865
POLYITAN 1 27 Feb 01:53:14 01:54:47 12° 304° (NW) 01:56:21 437.675
QB50P2 27 Feb 01:57:02 01:57:45 10° 305° (NW) 01:58:29 145.880/145.840
KKS-1 27 Feb 02:06:39 02:08:32 13° 56° (NE) 02:10:27 437.445
BUGSAT 1 27 Feb 02:10:37 02:13:45 20° 298° (WNW) 02:16:54 437.445
SO-50 27 Feb 02:11:24 02:12:27 11° 356° (N) 02:13:30 436.795
ITAMSAT 1 27 Feb 02:22:52 02:26:25 18° 90° (E) 02:29:56 435.822/435.867
STARS 27 Feb 02:35:59 02:37:28 12° 55° (NE) 02:38:57 437.465
PCSat 27 Feb 02:37:52 02:40:20 13° 257° (WSW) 02:42:47 145.827
AO-7 27 Feb 02:38:26 02:44:55 24° 91° (E) 02:51:21 .
Gurwin Techsat 1B 27 Feb 02:43:45 02:49:04 69° 288° (WNW) 02:54:21 435.225
AO-85 27 Feb 02:50:15 02:51:39 11° 110° (ESE) 02:53:02 145.980
CUBESAT XI-V 27 Feb 02:51:28 02:54:53 21° 61° (ENE) 02:58:18 437.345
ITUPSAT 1 27 Feb 03:14:28 03:18:15 23° 267° (W) 03:22:04 437.325
BEESAT 27 Feb 03:20:09 03:23:39 20° 269° (W) 03:27:10 436.000
MOZHAYETS 4 27 Feb 03:23:02 03:27:28 43° 262° (W) 03:31:56
Oscar 19 27 Feb 03:24:28 03:28:12 21° 302° (WNW) 03:31:57 437.125/150
RS-15 27 Feb 03:36:39 03:47:30 39° 253° (WSW) 03:58:00 29.354- 29.394
KKS-1 27 Feb 03:39:58 03:44:24 86° 72° (ENE) 03:48:53 437.445
SO-50 27 Feb 03:52:13 03:54:51 15° 21° (NNE) 03:57:29 436.795
M-CUBED/EXP-1 PRIME 27 Feb 03:58:39 04:01:47 46° 66° (ENE) 04:04:57 437.505
ITAMSAT 1 27 Feb 04:01:11 04:06:26 72° 288° (WNW) 04:11:38 435.822/435.867
STARS 27 Feb 04:08:41 04:13:03 79° 74° (ENE) 04:17:29 437.465
Gurwin Techsat 1B 27 Feb 04:25:41 04:28:05 13° 308° (NW) 04:30:29 435.225
AO-85 27 Feb 04:27:00 04:31:28 82° 126° (SE) 04:35:38 145.980
CUBESAT XI-V 27 Feb 04:27:20 04:31:54 56° 260° (W) 04:36:30 437.345
AO-7 27 Feb 04:30:18 04:38:41 85° 291° (WNW) 04:46:59 .
DOVE 4 27 Feb 04:53:19 04:54:20 11° 86° (E) 04:55:20 437.250
KKS-1 27 Feb 05:20:03 05:21:36 12° 273° (W) 05:23:08 437.445
CUTE-I 27 Feb 05:24:03 05:27:38 18° 89° (E) 05:31:12 437.470
SO-50 27 Feb 05:32:02 05:36:25 47° 44° (NE) 05:40:45 436.795
M-CUBED/EXP-1 PRIME 27 Feb 05:35:13 05:36:35 12° 263° (W) 05:37:58 437.505
STRAND 1 27 Feb 05:39:40 05:44:09 32° 63° (ENE) 05:48:41 437.568
ITAMSAT 1 27 Feb 05:42:32 05:45:00 14° 308° (NW) 05:47:28 435.822/435.867
STARS 27 Feb 05:48:07 05:49:58 12° 272° (W) 05:51:51 437.465
KAITUO 1B 27 Feb 05:52:02 05:55:07 23° 94° (E) 05:58:08 145.475/437.950
XW-2F 27 Feb 05:59:51 06:03:21 33° 97° (E) 06:06:47 145.980 - 146.000
BEESAT 3 27 Feb 06:03:52 06:07:42 55° 123° (ESE) 06:11:36 437.485
XW-2D 27 Feb 06:05:38 06:09:18 40° 98° (E) 06:12:53 145.860 - 145.880
AO-85 27 Feb 06:09:07 06:12:20 20° 327° (NNW) 06:15:26 145.980
XW-2B 27 Feb 06:10:43 06:14:25 45° 99° (E) 06:18:04 145.730 - 145.750
O/OREOS (USA 219) 27 Feb 06:13:10 06:15:47 15° 43° (NE) 06:18:22 437.305
XW-2C 27 Feb 06:19:23 06:23:11 57° 100° (E) 06:26:56 145.795 - 145.815
AO-7 27 Feb 06:23:59 06:30:25 26° 314° (NW) 06:36:50 .
NUDT-PHONESAT 27 Feb 06:24:03 06:27:47 53° 100° (E) 06:31:26 437.300
DOVE 4 27 Feb 06:27:58 06:32:42 78° 104° (ESE) 06:37:41 437.250
LilacSat-2 27 Feb 06:38:24 06:42:17 83° 284° (WNW) 06:46:06 437.200
BEESAT 2 27 Feb 06:46:32 06:50:26 64° 125° (SE) 06:54:26 435.950
ISS 27 Feb 06:50:14 06:51:59 14° 136° (SE) 06:53:43 437.550
HO-68 27 Feb 06:52:29 06:58:23 27° 92° (E) 07:04:14 435.675
CUBEBUG 2 27 Feb 06:54:48 06:55:34 10° 84° (E) 06:56:19 437.445
CUTE-I 27 Feb 07:02:52 07:08:16 75° 288° (WNW) 07:13:39 437.470
XW-2A 27 Feb 07:05:04 07:08:10 29° 96° (E) 07:11:14 145.665 - 145.685
SEEDS 27 Feb 07:07:04 07:09:48 17° 90° (E) 07:12:32 437.485
Tancredo 1 27 Feb 07:09:57 07:12:24 20° 140° (SE) 07:14:51 437.200
SO-50 27 Feb 07:12:51 07:16:42 28° 243° (WSW) 07:20:30 436.795
STRAND 1 27 Feb 07:18:22 07:23:13 41° 262° (W) 07:28:07 437.568
KAITUO 1B 27 Feb 07:25:49 07:29:11 31° 292° (WNW) 07:32:30 145.475/437.950
UWE-3 27 Feb 07:26:26 07:28:50 14° 87° (E) 07:31:11 435.000/436.395/437.385
XW-2F 27 Feb 07:34:19 07:37:21 23° 295° (WNW) 07:40:22 145.980 - 146.000
XW-2D 27 Feb 07:40:27 07:43:14 19° 296° (WNW) 07:46:00 145.860 - 145.880
BEESAT 3 27 Feb 07:42:21 07:45:35 24° 324° (NW) 07:48:53 437.485
ZACube-1 27 Feb 07:43:19 07:45:01 12° 86° (E) 07:46:43 437.345
XW-2B 27 Feb 07:45:41 07:48:18 18° 297° (WNW) 07:50:56 145.730 - 145.750
CUTE 1.7 + AOD 2 27 Feb 07:48:20 07:52:33 64° 100° (E) 07:56:43 437.475
O/OREOS (USA 219) 27 Feb 07:51:21 07:55:57 80° 62° (ENE) 08:00:33 437.305
XW-2C 27 Feb 07:54:46 07:56:58 15° 299° (WNW) 07:59:10 145.795 - 145.815
PRISM 27 Feb 07:56:34 08:00:05 29° 66° (ENE) 08:03:36 437.425
NUDT-PHONESAT 27 Feb 07:59:04 08:01:19 15° 298° (WNW) 08:03:34 437.300
FO-29 27 Feb 08:03:10 08:08:32 22° 50° (NE) 08:14:04 435.910
DOVE 4 27 Feb 08:06:59 08:09:53 17° 300° (WNW) 08:12:54 437.250
YUBILEINY 27 Feb 08:11:47 08:15:26 13° 69° (ENE) 08:19:04 435.215
AAUSAT CUBESAT 2 27 Feb 08:24:38 08:28:41 53° 100° (E) 08:32:41 437.432
ISS 27 Feb 08:24:39 08:27:56 67° 154° (SSE) 08:31:14 437.550
BEESAT 2 27 Feb 08:25:25 08:28:35 22° 325° (NW) 08:31:48 435.950
CUBEBUG 2 27 Feb 08:28:10 08:32:58 78° 101° (ESE) 08:37:42 437.445
AO-73 27 Feb 08:28:47 08:32:48 30° 94° (E) 08:36:42 145.935
Oscar 11 27 Feb 08:32:56 08:36:40 27° 94° (E) 08:40:21 .
XW-2A 27 Feb 08:38:07 08:40:48 21° 294° (WNW) 08:43:28 145.665 - 145.685
HO-68 27 Feb 08:39:35 08:46:42 70° 292° (WNW) 08:53:47 435.675
SEEDS 27 Feb 08:41:45 08:45:50 52° 288° (WNW) 08:49:52 437.485
TIGRISAT 27 Feb 08:44:23 08:48:34 37° 67° (ENE) 08:52:50 435.000
CUTE-I 27 Feb 08:44:38 08:47:27 15° 307° (NW) 08:50:16 437.470
UNISAT 6 27 Feb 08:44:40 08:48:55 40° 68° (ENE) 08:53:16 437.425
Tancredo 1 27 Feb 08:45:04 08:48:20 90° 284° (WNW) 08:51:36 437.200
UWE-3 27 Feb 09:01:10 09:05:52 79° 286° (WNW) 09:10:29 435.000/436.395/437.385
ZACube-1 27 Feb 09:17:22 09:21:59 87° 282° (WNW) 09:26:28 437.345
EO-79 27 Feb 09:21:14 09:22:08 11° 55° (NE) 09:23:02 145.935-145.965
CUTE 1.7 + AOD 2 27 Feb 09:25:20 09:27:55 16° 300° (WNW) 09:30:28 437.475
PRISM 27 Feb 09:31:44 09:35:20 30° 264° (W) 09:38:56 437.425
O/OREOS (USA 219) 27 Feb 09:32:31 09:34:42 13° 262° (W) 09:36:54 437.305
NANOSAT C BR1 27 Feb 09:35:30 09:37:35 14° 58° (ENE) 09:39:40 145.865
AO-85 27 Feb 09:36:35 09:36:41 10° 17° (NNE) 09:36:48 145.980
POLYITAN 1 27 Feb 09:37:39 09:40:08 15° 59° (ENE) 09:42:39 437.675
DELFI C3 27 Feb 09:38:18 09:42:03 41° 98° (E) 09:45:46 145.870
QB50P2 27 Feb 09:40:23 09:43:09 17° 60° (ENE) 09:45:56 145.880/145.840
FO-29 27 Feb 09:44:58 09:52:18 76° 71° (ENE) 10:00:11 435.910
AIST 2D 27 Feb 09:48:29 09:51:18 22° 66° (ENE) 09:54:09 435.315
AAUSAT CUBESAT 2 27 Feb 10:01:00 10:03:47 18° 298° (WNW) 10:06:32 437.432
ISS 27 Feb 10:01:17 10:04:31 49° 354° (N) 10:07:45 437.550
YUBILEINY 27 Feb 10:01:41 10:10:17 61° 92° (E) 10:18:53 435.215
AO-73 27 Feb 10:04:55 10:09:04 34° 293° (WNW) 10:13:06 145.935
CUBEBUG 2 27 Feb 10:06:01 10:08:59 17° 301° (WNW) 10:11:57 437.445
Oscar 11 27 Feb 10:08:55 10:12:51 34° 292° (WNW) 10:16:44 .
TIGRISAT 27 Feb 10:21:22 10:25:19 28° 266° (W) 10:29:21 435.000
Tancredo 1 27 Feb 10:21:39 10:24:49 46° 358° (N) 10:27:57 437.200
UNISAT 6 27 Feb 10:21:54 10:25:45 27° 267° (W) 10:29:42 437.425
HO-68 27 Feb 10:28:40 10:33:16 19° 313° (NW) 10:37:52 435.675
UWE-3 27 Feb 10:39:34 10:41:32 13° 304° (NW) 10:43:29 435.000/436.395/437.385
DUCHIFAT 1 27 Feb 10:39:39 10:43:42 47° 70° (ENE) 10:47:47 145.980
ESTCUBE 1 27 Feb 10:51:55 10:55:23 22° 92° (E) 10:58:49 437.505/2401.250
EO-79 27 Feb 10:52:55 10:57:08 76° 75° (ENE) 11:01:25 145.935-145.965
ZACube-1 27 Feb 10:55:24 10:57:32 13° 303° (WNW) 10:59:38 437.345
NANOSAT C BR1 27 Feb 11:08:28 11:12:42 81° 258° (WSW) 11:16:59 145.865
VELOX 1 27 Feb 11:09:19 11:10:32 11° 87° (E) 11:11:43 145.980
POLYITAN 1 27 Feb 11:11:10 11:15:24 70° 258° (WSW) 11:19:42 437.675
DELFI C3 27 Feb 11:13:43 11:16:36 20° 296° (WNW) 11:19:28 145.870
QB50P2 27 Feb 11:14:18 11:18:31 61° 259° (W) 11:22:46 145.880/145.840
AO-85 27 Feb 11:14:49 11:18:21 31° 40° (NE) 11:21:52 145.980
LO-87 27 Feb 11:15:09 11:18:45 71° 102° (ESE) 11:22:22 145.935 - 145.965
AIST 2D 27 Feb 11:21:16 11:24:25 29° 264° (W) 11:27:36 435.315
Oscar 19 27 Feb 11:27:07 11:31:06 23° 60° (ENE) 11:35:05 437.125/150
BUGSAT 1 27 Feb 11:27:34 11:31:32 54° 71° (ENE) 11:35:37 437.445
FO-29 27 Feb 11:31:57 11:38:02 27° 272° (W) 11:44:30 435.910
50 SAT 27 Feb 11:36:06 11:37:09 11° 89° (E) 11:38:11 437.505
ISS 27 Feb 11:38:00 11:41:17 59° 13° (NNE) 11:44:32 437.550
AO-7 27 Feb 11:53:38 11:58:09 16° 35° (NE) 12:02:40 .
Tancredo 1 27 Feb 11:58:06 12:01:21 72° 18° (NNE) 12:04:34 437.200
YUBILEINY 27 Feb 11:59:37 12:07:36 37° 294° (WNW) 12:15:35 435.215
DUCHIFAT 1 27 Feb 12:16:35 12:19:38 19° 268° (W) 12:22:43 145.980
DX 1 27 Feb 12:27:23 12:31:14 30° 96° (E) 12:35:04 434.975-435.025
ESTCUBE 1 27 Feb 12:28:07 12:32:26 46° 290° (WNW) 12:36:42 437.505/2401.250
Gurwin Techsat 1B 27 Feb 12:29:12 12:34:12 43° 67° (ENE) 12:39:13 435.225
EO-79 27 Feb 12:31:41 12:33:27 12° 272° (W) 12:35:13 145.935-145.965
